Terminal Aerodrome Forecast
Issued by NWS

Home | Current Version | Previous Version | Text Only | Print | Product List | Glossary On
Versions: 1 2 3 4 5 6 7 8 9 10 11 12 13 14 15 16 17
000
FTUS44 KMAF 290500
TAFHOB
TAF
KHOB 290520Z 2906/3006 31007KT P6SM FEW150
     FM291200 01017G26KT P6SM BKN130
     FM300000 04014G19KT P6SM OVC050=

USA.gov is the U.S. government's official web portal to all federal, state and local government web resources and services.